Powrót do katalogu

DELTA 4 R/B

AktywnyHEO
NORAD 38071·ROCKET BODY·🇺🇸 United States

Wystrzelony Jan 20, 2012 z Cape Canaveral Space Force Station

Loading…

Następne Przeloty (najbliższe 24 godziny)

TLE

ŚwieżeSource: Space-Track

Epoka: Sep 14, 2026, 03:29 UTC

1 38071U 12003B   26257.14580579 -.00000123  00000-0 -50166-3 0  9995
2 38071  22.5493  79.6441 8210109   4.3557 359.7641  1.17697578 62017

Śledź DELTA 4 R/B w czasie rzeczywistym z AllMySat

Download on the App Store